Погода в Адамовке

Россия / Оренбургская область     51°31′11″N   59°56′08″E
темп.,
°C
ветер,
м/с
пор.,
м/с
влажн.,
%
обл.,
%
осадки,
мм/ч
давл.,
гПа
погр.,
м
28 октября, чт
чт2823:000юз6135715 0.0 1027342
02:000юз6146215 0.0 1026366
05:00−1зюз7156369 0.0 1025386
08:00−1юз71563100 0.0 1024416
11:00+2зюз91450100 0.0 1023656
14:00+5зюз10144197 0.0 1022913
17:00+4зюз91451100 0.0 1021817
20:00+3зюз8146475 0.0 1022671
29 октября, пт
пт2923:00+2зюз71472100 0.0 1022543
02:00+1зюз61379100 0.0 1021479
05:00+1юз61284100 0.0 1021420
08:00+1юз61285100 0.0 1022400
11:00+4зюз71171100 0.0 1023693
14:00+6з7964100 0.0 1023954
17:00+6з5866100 0.0 1024910
20:00+3зсз479178 0.0 1026407
30 октября, сб
сб3023:00+4з3584100 0.1 1028564
02:00+4з2482100 0.0 1029224
05:00+3з2480100 0.0 1030209
08:00+3юз3580100 0.0 1030190
11:00+5зюз577291 0.0 1030438
14:00+7зюз81159100 0.0 10291437
17:00+6зюз81267100 0.0 1028952
20:00+6зюз8146794 0.0 1027753
31 октября, вс
вс3123:00+5зюз816715 0.0 1026651
02:00+4зюз815755 0.0 1026523
05:00+3з7138159 0.0 1026426
08:00+4з61184100 0.0 1026339
11:00+6з797775 0.0 1027325
14:00+9зсз566637 0.0 1027794
17:00+8з467153 0.0 1028178
20:00+6з478066 0.0 1028161
1 ноября, пн
пн123:00+4з48899 0.0 1029201
02:00+5з488011 0.0 1028183
05:00+6зюз5118699 0.0 1027348
08:00+5зюз613935 0.0 1026290
11:00+8з814785 0.0 1025513
14:00+11з912525 0.0 1023781
17:00+10з813555 0.0 1023546
20:00+7з6136817 0.0 1023420